Location: Unspecified
(0.0000°N, 0.0000°E)
Time: 05:45:41
(UTC+00:00)

Altair - Pass Details

Date: 21 May 2026
Orbit: 1501 x 1682 km, 47.2° (Epoch: 8 June)

Event Time Altitude Azimuth Distance (km) Brightness Sun altitude
Exits shadow 02:24:55 16° 347° (NNW) 3,360 9.3 -48.5°
Drops below altitude 10° 02:27:23 10° 360° (N) 3,827 9.8 -48.0°
Sets 02:31:37 0° 15° (NNE) 4,842 10.5 -47.1°
